Weather History for Roosevelt Roads, PR

Change the Weather History Date:

Friday, November 2, 2012

  Actual Average Record
Temperature  
Mean Temperature 82 °F -  
Max Temperature 88 °F 83 °F 88 °F (2007)
Min Temperature 75 °F 71 °F 35 °F (1999)
Cooling Degree Days 16    
Growing Degree Days 32 (Base 50)    
Moisture  
Dew Point 74 °F    
Average Humidity 77    
Maximum Humidity 88    
Minimum Humidity 65    
Precipitation  
Precipitation 0.10 in - - ()
Sea Level Pressure  
Sea Level Pressure 29.95 in    
Wind  
Wind Speed 6 mph (ENE)    
Max Wind Speed 12 mph    
Max Gust Speed 22 mph    
Visibility 9 miles    
Events Rain    
Averages and records for this station are not official NWS values.
T = Trace of Precipitation, MM = Missing Value Source: NWS Daily Summary

Daily Weather History Graph

Daily Weather History Graph

Search for Another Location

Airport:

Trip Planner

Search our weather history database for the weather conditions in past years. The results will help you decide how hot, cold, wet, or windy it might be!

Date:

Astronomy

Nov. 02, 2012 Rise Set
Actual Time 6:22 AM AST 5:49 PM AST
Civil Twilight 6:00 AM AST 6:11 PM AST
Nautical Twilight 5:34 AM AST 6:37 PM AST
Astronomical Twilight 5:08 AM AST 7:03 PM AST
Moon 8:49 PM AST (11/2) 9:23 AM AST (11/2)
Length of Visible Light 12h 11m
Length of Day
11h 26m
Waning Gibbous, 87% of the Moon is Illuminated
Nov 2
Waning Gibbous
Nov 6
Last Quarter
Nov 13
New
Nov 20
First Quarter
Nov 28
Full

Hourly Weather History & Observations

Time (AST) Temp. Heat Index Dew Point Humidity Pressure Visibility Wind Dir Wind Speed Gust Speed Precip Events Conditions
12:53 AM 81.0 °F 85.8 °F 73.0 °F 77% 29.96 in 10.0 mi NE 9.2 mph - N/A   Scattered Clouds
1:10 AM 80.6 °F 85.4 °F 73.4 °F 79% 29.95 in 10.0 mi East 3.5 mph - N/A   Mostly Cloudy
1:41 AM 80.6 °F 85.4 °F 73.4 °F 79% 29.94 in 10.0 mi East 9.2 mph - N/A   Scattered Clouds
1:53 AM 82.0 °F 87.9 °F 73.9 °F 76% 29.95 in 10.0 mi East 8.1 mph - N/A   Mostly Cloudy
2:11 AM 80.6 °F 85.4 °F 73.4 °F 79% 29.94 in 10.0 mi East 6.9 mph - N/A   Mostly Cloudy
2:18 AM 80.6 °F 85.4 °F 73.4 °F 79% 29.94 in 10.0 mi East 10.4 mph - N/A   Mostly Cloudy
2:53 AM 81.0 °F 84.9 °F 71.1 °F 72% 29.94 in 10.0 mi ENE 6.9 mph - N/A   Partly Cloudy
3:53 AM 80.1 °F 83.6 °F 71.1 °F 74% 29.94 in 10.0 mi East 3.5 mph - N/A   Partly Cloudy
4:53 AM 79.0 °F - 71.1 °F 77% 29.94 in 10.0 mi Calm Calm - N/A   Clear
5:53 AM 75.0 °F - 71.1 °F 87% 29.94 in 10.0 mi Calm Calm - N/A   Clear
6:53 AM 77.0 °F - 73.0 °F 88% 29.96 in 10.0 mi Calm Calm - N/A   Partly Cloudy
7:53 AM 82.9 °F 88.8 °F 73.0 °F 72% 29.97 in 10.0 mi East 8.1 mph - N/A   Scattered Clouds
8:53 AM 84.0 °F 91.2 °F 73.9 °F 72% 29.99 in 10.0 mi ENE 6.9 mph - N/A   Scattered Clouds
9:53 AM 87.1 °F 96.3 °F 75.0 °F 67% 29.99 in 10.0 mi ENE 8.1 mph - N/A   Partly Cloudy
10:53 AM 87.1 °F 95.4 °F 73.9 °F 65% 29.98 in 10.0 mi East 8.1 mph - N/A   Clear
11:53 AM 87.1 °F 95.4 °F 73.9 °F 65% 29.96 in 10.0 mi East 8.1 mph - N/A   Partly Cloudy
12:53 PM 88.0 °F 98.5 °F 75.9 °F 67% 29.95 in 10.0 mi East 6.9 mph - N/A   Clear
1:53 PM 87.1 °F 96.3 °F 75.0 °F 67% 29.93 in 10.0 mi ENE 9.2 mph - N/A   Mostly Cloudy
2:53 PM 81.0 °F 86.2 °F 73.9 °F 79% 29.92 in 6.0 mi ENE 4.6 mph - 0.00 in Rain Light Rain
3:25 PM 84.2 °F 90.9 °F 73.4 °F 70% 29.92 in 10.0 mi East 4.6 mph - 0.00 in   Mostly Cloudy
3:42 PM 84.2 °F 90.9 °F 73.4 °F 70% 29.92 in 10.0 mi ENE 5.8 mph - 0.00 in   Scattered Clouds
3:53 PM 84.9 °F 92.1 °F 73.9 °F 69% 29.92 in 10.0 mi ENE 4.6 mph - 0.00 in   Mostly Cloudy
4:05 PM 82.4 °F 89.5 °F 75.2 °F 79% 29.92 in 9.0 mi East 6.9 mph - 0.00 in Rain Light Rain
4:22 PM 80.6 °F 86.2 °F 75.2 °F 84% 29.92 in 5.0 mi East 3.5 mph - 0.01 in Rain Light Rain
4:38 PM 80.6 °F 86.2 °F 75.2 °F 84% 29.93 in 1.8 mi ESE 11.5 mph 21.9 mph 0.08 in Rain Rain
4:48 PM 80.6 °F 85.4 °F 73.4 °F 79% 29.93 in 3.0 mi Calm Calm - 0.10 in Rain Light Rain
4:53 PM 80.1 °F 85.1 °F 75.0 °F 85% 29.93 in 10.0 mi Variable 3.5 mph - 0.10 in   Overcast
5:15 PM 80.6 °F 86.2 °F 75.2 °F 84% 29.93 in 10.0 mi ENE 5.8 mph - N/A   Overcast
5:46 PM 80.6 °F 86.2 °F 75.2 °F 84% 29.93 in 10.0 mi ENE 5.8 mph - 0.00 in   Mostly Cloudy
5:53 PM 80.1 °F 85.1 °F 75.0 °F 85% 29.94 in 10.0 mi NE 4.6 mph - 0.00 in   Scattered Clouds
6:21 PM 80.6 °F 85.4 °F 73.4 °F 79% 29.94 in 10.0 mi ENE 6.9 mph - N/A   Mostly Cloudy
6:30 PM 80.6 °F 85.4 °F 73.4 °F 79% 29.94 in 10.0 mi ENE 8.1 mph - N/A   Mostly Cloudy
6:53 PM 80.1 °F 84.5 °F 73.9 °F 81% 29.95 in 10.0 mi ENE 6.9 mph - N/A   Scattered Clouds
7:53 PM 81.0 °F 86.2 °F 73.9 °F 79% 29.96 in 10.0 mi NE 6.9 mph - N/A   Scattered Clouds
8:53 PM 81.0 °F 85.8 °F 73.0 °F 77% 29.98 in 10.0 mi NE 8.1 mph - N/A   Scattered Clouds
9:53 PM 81.0 °F 85.8 °F 73.0 °F 77% 29.98 in 10.0 mi NE 5.8 mph - N/A   Partly Cloudy
10:53 PM 80.1 °F 84.2 °F 73.0 °F 79% 29.99 in 10.0 mi NE 6.9 mph - N/A   Scattered Clouds
11:53 PM 81.0 °F 85.8 °F 73.0 °F 77% 29.98 in 10.0 mi NE 10.4 mph - 0.00 in   Mostly Cloudy